Tiempo cada hora Ali-Yurt

Hoy, 3 Agosto, Martes

Tiempo Temperatura Precipitaciones Viento Presión Humedad
00:00 +20°C° 0 mm 2 mps 700 mmHg 68%
01:00 +20°C° 0 mm 2 mps 700 mmHg 67%
02:00 +20°C° 0 mm 2 mps 700 mmHg 65%
03:00 +19°C° 0 mm 2 mps 700 mmHg 63%
04:00 +20°C° 0 mm 2 mps 701 mmHg 64%
05:00 +20°C° 0 mm 2 mps 701 mmHg 64%
06:00 +20°C° 0 mm 2 mps 701 mmHg 64%
07:00 +23°C° 0 mm 1 mps 701 mmHg 57%
08:00 +26°C° 0 mm 1 mps 702 mmHg 51%
09:00 +28°C° 0 mm 1 mps 702 mmHg 44%
10:00 +30°C° 0 mm 1 mps 702 mmHg 42%
11:00 +31°C° 0 mm 1 mps 702 mmHg 39%
12:00 +32°C° 0 mm 2 mps 702 mmHg 37%
13:00 +32°C° 0 mm 2 mps 702 mmHg 36%
14:00 +32°C° 0 mm 2 mps 702 mmHg 36%
15:00 +34°C° 0 mm 2 mps 702 mmHg 36%
16:00 +31°C° 0.1 mm 2 mps 702 mmHg 43%
17:00 +30°C° 0.1 mm 2 mps 701 mmHg 49%
18:00 +29°C° 0.1 mm 2 mps 701 mmHg 56%
19:00 +27°C° 0 mm 2 mps 701 mmHg 58%
20:00 +26°C° 0 mm 2 mps 701 mmHg 60%
21:00 +24°C° 0 mm 2 mps 701 mmHg 62%
22:00 +23°C° 0 mm 2 mps 701 mmHg 61%
23:00 +23°C° 0 mm 2 mps 701 mmHg 60%

Mañana, 4 Agosto, Miércoles

Tiempo Temperatura Precipitaciones Viento Presión Humedad
00:00 +23°C° 0 mm 2 mps 701 mmHg 60%
01:00 +21°C° 0 mm 2 mps 701 mmHg 57%
02:00 +21°C° 0 mm 2 mps 701 mmHg 55%
03:00 +21°C° 0 mm 2 mps 701 mmHg 53%
04:00 +21°C° 0 mm 2 mps 702 mmHg 54%
05:00 +21°C° 0 mm 2 mps 702 mmHg 55%
06:00 +21°C° 0 mm 2 mps 702 mmHg 56%
07:00 +25°C° 0 mm 2 mps 702 mmHg 51%
08:00 +27°C° 0 mm 2 mps 703 mmHg 46%
09:00 +30°C° 0 mm 1 mps 703 mmHg 42%
10:00 +31°C° 0 mm 2 mps 703 mmHg 39%
11:00 +32°C° 0 mm 2 mps 703 mmHg 37%
12:00 +34°C° 0 mm 2 mps 703 mmHg 35%
13:00 +34°C° 0.1 mm 2 mps 703 mmHg 35%
14:00 +34°C° 0.1 mm 2 mps 703 mmHg 35%
15:00 +35°C° 0.1 mm 2 mps 703 mmHg 34%
16:00 +32°C° 0.2 mm 2 mps 702 mmHg 41%
17:00 +31°C° 0.2 mm 2 mps 702 mmHg 48%
18:00 +29°C° 0.2 mm 2 mps 702 mmHg 55%
19:00 +27°C° 0.3 mm 2 mps 702 mmHg 60%
20:00 +26°C° 0.3 mm 3 mps 702 mmHg 65%
21:00 +24°C° 0.3 mm 3 mps 703 mmHg 69%
22:00 +24°C° 0 mm 3 mps 702 mmHg 67%
23:00 +24°C° 0 mm 3 mps 702 mmHg 65%

Pasado mañana, 5 Agosto, Jueves

Tiempo Temperatura Precipitaciones Viento Presión Humedad
00:00 +24°C° 0 mm 2 mps 702 mmHg 63%
01:00 +23°C° 0 mm 2 mps 702 mmHg 63%
02:00 +23°C° 0 mm 2 mps 702 mmHg 63%
03:00 +23°C° 0 mm 2 mps 702 mmHg 63%
04:00 +21°C° 0 mm 2 mps 702 mmHg 64%
05:00 +21°C° 0 mm 2 mps 702 mmHg 66%
06:00 +21°C° 0 mm 2 mps 702 mmHg 67%
07:00 +24°C° 0 mm 2 mps 703 mmHg 61%
08:00 +26°C° 0 mm 2 mps 703 mmHg 54%
09:00 +29°C° 0 mm 2 mps 703 mmHg 48%
10:00 +30°C° 0 mm 2 mps 703 mmHg 46%
11:00 +31°C° 0 mm 3 mps 703 mmHg 43%
12:00 +33°C° 0 mm 3 mps 703 mmHg 41%
13:00 +32°C° 0.1 mm 2 mps 703 mmHg 40%
14:00 +32°C° 0.1 mm 2 mps 702 mmHg 40%
15:00 +34°C° 0.1 mm 2 mps 702 mmHg 39%
16:00 +32°C° 0.3 mm 2 mps 702 mmHg 44%
17:00 +31°C° 0.3 mm 2 mps 702 mmHg 49%
18:00 +30°C° 0.3 mm 2 mps 702 mmHg 55%
19:00 +28°C° 0 mm 2 mps 702 mmHg 59%
20:00 +26°C° 0 mm 2 mps 702 mmHg 64%
21:00 +24°C° 0 mm 2 mps 702 mmHg 68%
22:00 +24°C° 0 mm 2 mps 701 mmHg 67%
23:00 +23°C° 0 mm 2 mps 701 mmHg 67%

6 Agosto, Viernes

Tiempo Temperatura Precipitaciones Viento Presión Humedad
00:00 +23°C° 0 mm 2 mps 701 mmHg 66%
01:00 +23°C° 0 mm 2 mps 700 mmHg 64%
02:00 +21°C° 0 mm 2 mps 700 mmHg 62%
03:00 +21°C° 0 mm 2 mps 700 mmHg 60%
04:00 +21°C° 0 mm 2 mps 700 mmHg 60%
05:00 +21°C° 0 mm 2 mps 700 mmHg 60%
06:00 +21°C° 0 mm 2 mps 700 mmHg 60%
07:00 +25°C° 0 mm 1 mps 700 mmHg 55%
08:00 +27°C° 0 mm 1 mps 701 mmHg 50%
09:00 +29°C° 0 mm 1 mps 701 mmHg 45%
10:00 +31°C° 0 mm 2 mps 701 mmHg 41%
11:00 +32°C° 0 mm 2 mps 700 mmHg 37%
12:00 +35°C° 0 mm 3 mps 700 mmHg 34%
13:00 +35°C° 0 mm 3 mps 700 mmHg 32%
14:00 +36°C° 0 mm 3 mps 700 mmHg 31%
15:00 +36°C° 0 mm 3 mps 699 mmHg 29%
16:00 +35°C° 0 mm 3 mps 699 mmHg 33%
17:00 +34°C° 0 mm 3 mps 699 mmHg 37%
18:00 +33°C° 0 mm 3 mps 698 mmHg 41%
19:00 +30°C° 0 mm 3 mps 698 mmHg 43%
20:00 +27°C° 0 mm 3 mps 698 mmHg 45%
21:00 +25°C° 0 mm 2 mps 698 mmHg 47%
22:00 +24°C° 0 mm 2 mps 698 mmHg 47%
23:00 +24°C° 0 mm 2 mps 698 mmHg 46%

7 Agosto, Sábado

Tiempo Temperatura Precipitaciones Viento Presión Humedad
00:00 +23°C° 0 mm 2 mps 697 mmHg 46%
01:00 +23°C° 0 mm 2 mps 697 mmHg 47%
02:00 +23°C° 0 mm 2 mps 697 mmHg 47%
03:00 +23°C° 0 mm 2 mps 696 mmHg 48%
04:00 +23°C° 0 mm 2 mps 696 mmHg 50%
05:00 +23°C° 0 mm 1 mps 697 mmHg 51%
06:00 +23°C° 0 mm 1 mps 697 mmHg 53%
07:00 +25°C° 0 mm 1 mps 697 mmHg 48%
08:00 +27°C° 0 mm 1 mps 697 mmHg 43%
09:00 +30°C° 0 mm 1 mps 698 mmHg 38%
10:00 +31°C° 0 mm 1 mps 698 mmHg 36%
11:00 +34°C° 0 mm 2 mps 698 mmHg 33%
12:00 +35°C° 0 mm 2 mps 698 mmHg 31%
13:00 +36°C° 0 mm 2 mps 697 mmHg 30%
14:00 +36°C° 0 mm 2 mps 697 mmHg 29%
15:00 +37°C° 0 mm 2 mps 697 mmHg 28%
16:00 +35°C° 0 mm 2 mps 697 mmHg 36%
17:00 +32°C° 0 mm 2 mps 697 mmHg 44%
18:00 +30°C° 0 mm 1 mps 697 mmHg 52%
19:00 +29°C° 0 mm 2 mps 697 mmHg 55%
20:00 +27°C° 0 mm 2 mps 698 mmHg 58%
21:00 +25°C° 0 mm 3 mps 699 mmHg 62%
22:00 +25°C° 0 mm 3 mps 699 mmHg 63%
23:00 +24°C° 0 mm 3 mps 699 mmHg 65%

8 Agosto, Domingo

Tiempo Temperatura Precipitaciones Viento Presión Humedad
00:00 +24°C° 0 mm 2 mps 699 mmHg 67%
01:00 +23°C° 0 mm 2 mps 699 mmHg 66%
02:00 +23°C° 0 mm 2 mps 699 mmHg 66%
03:00 +23°C° 0 mm 2 mps 699 mmHg 65%
04:00 +23°C° 0 mm 2 mps 700 mmHg 65%
05:00 +23°C° 0 mm 2 mps 700 mmHg 66%
06:00 +23°C° 0 mm 2 mps 700 mmHg 66%
07:00 +25°C° 0 mm 2 mps 701 mmHg 61%
08:00 +27°C° 0 mm 3 mps 701 mmHg 56%
09:00 +29°C° 0 mm 3 mps 702 mmHg 51%
10:00 +30°C° 0.1 mm 3 mps 702 mmHg 47%
11:00 +31°C° 0.1 mm 3 mps 702 mmHg 44%
12:00 +33°C° 0.1 mm 3 mps 703 mmHg 41%
13:00 +33°C° 0.1 mm 3 mps 703 mmHg 40%
14:00 +33°C° 0.1 mm 3 mps 703 mmHg 38%
15:00 +34°C° 0.1 mm 3 mps 703 mmHg 37%
16:00 +31°C° 0.2 mm 3 mps 703 mmHg 42%
17:00 +30°C° 0.2 mm 3 mps 703 mmHg 47%
18:00 +29°C° 0.2 mm 2 mps 703 mmHg 52%
19:00 +27°C° 0.2 mm 2 mps 703 mmHg 58%
20:00 +26°C° 0.2 mm 2 mps 703 mmHg 64%
21:00 +24°C° 0.2 mm 2 mps 703 mmHg 71%
22:00 +24°C° 0 mm 2 mps 703 mmHg 71%
23:00 +23°C° 0 mm 2 mps 703 mmHg 71%
Mostrar más

Necesitamos Su Consentimiento

Meteoprog y nuestros Proveedores de Servicios pueden almacenar y acceder a sus datos personales como cookies, identificadores de dispositivo u otras tecnologías similares de su dispositivo y procesar dichos datos para personalizar contenido y anuncios, además de ofrecer funciones de redes sociales y analizar el tráfico.

  • Almacenar y/o acceder a información en su dispositivo

    Se puede almacenar o acceder a cookies, identificadores de dispositivo u otra información de su dispositivo para los fines anteriormente indicados.

  • Anuncios y contenido personalizados, medición de anuncios y contenido, percepciones del público, y desarrollo de productos

    Los anuncios y el contenido pueden personalizarse en base a su perfil. Se pueden añadir más datos para personalizar mejor los anuncios y contenidos. Se puede medir el rendimiento de los anuncios y contenidos. Se puede obtener la percepción sobre el público que ha visto los anuncios y contenidos. Dichos datos pueden usarse para desarrollar o mejorar la experiencia del usuario, sistemas y software.

Al hacer clic en ‘Estoy De Acuerdo’ usted permitirá el uso de las cookies, identificadores de dispositivo, balizas web u otras tecnologías similares indicadas. Su configuración puede cambiarse desde el navegador de su dispositivo.

Para ciertos fines, los intereses legítimos pueden ser considerados por encima del consentimiento. Puede leer más sobre ello en nuestra Política de Privacidad y Cookies.